Lid_Strength_Index
-1 1 2 4 7 9 11 10 9 10 8 7 6 7 8 7 9 11 2 1 0 0 -1 -1 -1 -1 -1 -2 -2 -2 -2 -2 -2 -2 -2 -2 -2 -2 -2 -2 -2 -3 -3 -2 -2 -2 -2 -2 -2
1 3 3 6 9 12 11 10 10 8 7 6 6 7 8 9 5 4 3 0 -0 -0 -1 -1 -1 -1 -1 -2 -2 -2 -2 -2 -2 -2 -2 -2 -2 -2 -2 -2 -2 -3 -3 -2 -2 -2 -2 -2 -2
1 2 4 7 10 11 11 9 8 7 6 6 7 5 7 8 4 4 1 0 -0 -0 -1 -1 -1 -1 -1 -1 -2 -2 -2 -2 -2 -2 -2 -2 -2 -2 -2 -2 -2 -3 -3 -3 -3 -2 -2 -2 -2
2 3 7 9 10 10 10 9 7 7 6 5 6 9 5 3 3 2 0 -0 0 -0 -1 -1 -1 -1 -1 -1 -2 -2 -2 -2 -2 -2 -2 -2 -2 -2 -2 -2 -2 -3 -3 -3 -2 -2 -3 -3 -3
5 6 8 10 12 10 9 7 7 8 7 7 6 9 7 3 2 1 1 0 0 -0 -1 -1 -1 -1 -1 -2 -2 -2 -2 -2 -2 -2 -2 -2 -2 -2 -2 -2 -2 -3 -3 -3 -3 -2 -3 -3 -3
5 7 9 11 11 10 7 7 7 8 7 7 7 7 7 2 3 3 2 2 1 1 -0 -1 -1 -1 -1 -1 -1 -1 -1 -1 -2 -2 -2 -2 -2 -2 -2 -3 -3 -3 -3 -3 -3 -3 -3 -3 -3
6 7 10 12 11 9 8 6 8 8 7 8 5 9 6 4 2 2 3 3 2 1 1 1 1 1 0 -1 -1 -1 -1 -1 -1 -1 -1 -2 -2 -3 -3 -3 -3 -3 -3 -3 -4 -4 -3 -3 -2
6 7 10 11 11 10 7 7 6 7 8 4 4 9 8 4 3 3 3 3 3 2 2 3 3 2 1 -1 -1 -1 -1 -1 -1 -1 -2 -2 -2 -3 -3 -3 -3 -3 -3 -3 -4 -3 -3 -2 -2
7 8 11 11 10 8 7 8 6 5 6 6 5 5 4 3 3 3 4 4 3 2 3 3 3 1 0 -1 -1 -1 -2 -1 -1 -2 -2 -1 -2 -2 -2 -3 -3 -3 -3 -3 -3 -2 -1 -2 -1
6 10 10 9 8 7 7 7 7 7 8 8 6 4 3 3 3 4 5 4 4 3 3 2 2 3 2 0 0 0 -1 -0 -1 -1 -2 -2 -2 -2 -2 -2 -2 -3 -2 -2 -1 -0 0 0 1
8 9 9 8 8 6 7 7 6 8 9 7 8 6 4 4 4 3 3 3 4 3 3 3 3 3 3 3 1 0 -0 -0 -0 -2 -2 -2 -2 -2 -2 -1 0 0 1 2 1 1 1 1 2
8 8 8 8 6 6 7 6 7 7 7 5 5 4 4 4 4 3 3 3 3 3 3 3 3 3 2 2 0 1 0 -0 -1 -1 -2 -1 -1 -1 1 2 1 2 2 2 1 1 1 1 2
9 8 7 8 6 6 6 7 8 8 5 4 4 4 4 4 4 3 2 2 3 2 2 2 1 1 -0 -0 -0 -0 -0 -1 -1 -1 -2 -1 -1 0 1 2 2 2 2 2 1 1 1 2 2
7 8 7 6 6 6 8 8 7 7 5 5 5 5 4 4 4 3 3 3 3 1 1 -0 -0 -1 -1 -1 -1 -1 -1 -1 -1 -1 -1 -1 1 2 2 2 2 2 2 1 1 1 1 2 2
6 8 7 7 7 7 6 9 10 6 5 6 6 5 4 4 3 3 2 2 2 1 1 0 -0 -1 -1 -1 -1 -1 -1 -1 -1 -1 -0 0 1 2 2 2 2 2 2 1 1 1 1 3 3
9 9 10 7 7 7 7 12 9 6 6 7 6 5 5 4 3 3 2 2 1 1 1 0 -0 -0 -1 -0 -1 -1 -1 -1 -1 -1 0 1 2 2 2 2 2 2 1 1 1 1 2 3 3
9 11 10 9 6 7 8 11 8 6 7 7 6 6 5 4 3 3 2 1 1 1 1 1 -0 -0 -0 -1 -1 -1 -1 -1 -0 -0 1 2 3 3 2 2 2 1 1 1 1 2 2 3 4
11 11 10 10 8 8 9 10 8 7 7 7 7 6 5 5 4 3 2 1 1 1 0 0 0 -0 -0 -0 -1 -1 -0 1 1 1 1 2 2 2 2 2 1 1 2 2 3 3 3 3 3
9 10 10 9 8 8 9 10 9 8 7 8 7 7 6 5 3 2 2 1 1 1 1 1 1 0 0 1 1 1 1 2 2 2 2 2 2 3 2 2 2 2 2 3 3 4 4 4 4
9 10 10 9 9 8 9 10 9 8 8 7 7 7 6 5 4 3 3 2 2 1 1 1 1 0 1 0 0 1 1 3 2 3 3 2 3 3 3 2 2 3 4 4 4 4 4 5 4
9 10 10 10 10 9 9 10 10 8 7 7 6 5 5 5 5 4 3 3 2 2 1 1 1 0 0 0 3 4 4 5 5 4 3 3 2 3 3 4 4 5 5 6 5 4 4 6 6
11 8 9 10 11 12 10 13 10 9 9 8 7 6 6 5 4 4 4 3 2 2 1 1 1 1 1 2 3 3 3 4 3 4 4 4 4 5 5 6 5 6 6 5 5 5 5 5 6
9 8 9 9 11 11 11 12 10 9 11 9 7 6 5 5 4 4 4 3 2 1 1 1 1 1 1 3 3 2 3 2 4 6 7 7 6 6 6 6 5 5 5 5 5 5 5 5 7
8 9 9 10 11 15 12 12 11 10 9 8 7 6 5 5 4 4 3 2 2 1 1 1 1 1 1 2 3 3 3 5 6 6 7 7 7 7 6 6 5 5 5 6 6 6 6 7 6
8 10 14 15 16 16 11 13 11 8 7 7 7 6 5 4 4 4 4 3 3 2 2 1 1 2 2 2 3 3 4 5 5 6 8 8 7 7 7 6 6 5 5 5 5 6 6 5 5
9 10 15 18 18 15 12 15 10 7 6 6 6 6 5 4 4 4 3 3 3 2 2 2 2 2 2 2 2 3 4 5 4 5 6 8 7 7 7 6 6 6 6 5 5 6 5 5 5
10 12 9 14 14 16 13 11 8 8 7 7 6 6 6 6 4 4 3 3 3 2 2 2 2 2 2 2 2 3 3 4 4 5 5 6 7 7 7 7 7 7 6 6 5 5 5 5 5
9 8 13 13 18 18 14 14 12 9 8 8 7 6 5 5 5 4 3 3 2 2 2 1 1 2 1 1 1 2 3 4 4 5 6 7 7 8 7 7 8 7 6 6 6 5 5 5 5
10 11 11 11 13 16 17 14 9 8 7 7 7 7 5 5 5 4 3 3 2 2 2 2 2 1 1 1 2 3 4 4 4 5 6 7 8 8 8 9 7 7 7 6 6 6 6 6 5
9 10 10 15 14 14 14 14 8 7 7 7 7 7 5 4 4 4 3 3 3 2 2 2 2 2 2 4 3 3 4 5 5 6 7 8 9 8 8 8 7 7 7 6 7 6 7 7 7